Tracking 19817 objects as of 21-Aug-2019
HD Live streaming from Space Station
objects crossing your sky now

STARLINK OBJ AS

Track STARLINK OBJ AS now!
10-day predictions
STARLINK OBJ AS is classified as:


NORAD ID: 44275
Int'l Code: 2019-029AS
Perigee: 556.7 km
Apogee: 557.6 km
Inclination: 53.0 °
Period: 95.7 minutes
Semi major axis: 6928 km
RCS: Unknown
Launch date: May 24, 2019
Source: United States (US)
Launch site: AIR FORCE EASTERN TEST RANGE (AFETR)
aabbcc
Your satellite tracking list
Your tracking list is empty




NASA's NSSDC Master Catalog

Two Line Element Set (TLE):
1 44275U 19029AS  19231.90580019 +.00000906 +00000-0 +81544-4 0  9992
2 44275 053.0010 137.5745 0000686 109.8294 250.2768 15.05479377012605
Source of the keplerian elements: AFSPC